Snowfall_Accumulation
1.3 0.7 0.4 0.6 0.3 0.0 0.1 0.1 1.5 0.1 0.0 0.0 0.0 0.0 0.0 0.0 0.0 0.0 0.0 0.0 0.0 0.0 0.0 0.0 0.0 0.0 0.0 0.0 0.0 0.0 0.0 0.0 0.0 0.0 0.0 0.0 0.0 0.0 0.0 0.0 0.0 0.0 0.0 0.0
2.2 1.5 0.8 0.9 0.0 0.0 0.2 0.1 0.3 0.6 0.3 0.0 0.0 0.0 0.0 0.0 0.0 0.0 0.0 0.0 0.0 0.0 0.0 0.0 0.0 0.0 0.0 0.0 0.0 0.0 0.0 0.0 0.0 0.0 0.0 0.0 0.0 0.0 0.0 0.0 0.0 0.0 0.0 0.0
1.2 1.3 1.7 1.8 0.1 0.1 0.0 0.2 0.5 2.2 0.5 0.0 0.0 0.0 0.0 0.0 0.0 0.0 0.0 0.0 0.0 0.0 0.0 0.0 0.0 0.0 0.0 0.0 0.0 0.1 0.2 0.0 0.0 0.1 0.1 0.1 0.1 0.0 0.1 0.1 0.1 0.1 0.1 0.1
2.6 0.7 10.0 0.3 0.0 0.0 0.0 0.0 0.0 0.0 0.0 0.0 0.0 0.0 0.0 0.0 0.0 0.0 0.0 0.0 0.0 0.0 0.0 0.0 0.0 0.0 0.0 0.1 0.5 0.8 0.1 0.1 0.0 0.1 0.2 0.2 0.3 0.7 1.0 0.9 2.8 2.3 1.5 1.3
6.5 2.2 0.2 0.0 0.0 0.3 0.2 0.2 0.0 0.0 0.0 0.0 0.0 0.0 0.1 0.0 0.0 0.0 0.1 0.0 0.2 0.0 0.1 0.1 0.1 0.1 0.1 0.5 0.5 0.2 0.3 0.2 0.3 0.3 0.7 0.9 3.0 2.8 2.9 1.4 1.8 4.7 3.7 2.7
2.6 3.0 3.0 0.3 0.0 0.0 0.0 1.1 0.0 0.0 0.0 0.0 0.0 0.8 0.5 0.0 0.0 0.1 0.2 0.1 0.1 0.4 0.4 0.2 0.3 0.1 0.1 0.4 0.2 0.7 0.3 0.2 0.2 0.2 1.9 4.4 4.2 5.6 4.8 3.9 4.7 3.0 3.6 4.1
2.2 2.4 0.9 0.0 0.0 0.0 1.5 0.4 0.0 0.0 0.1 0.0 1.0 0.5 0.1 0.2 0.7 0.9 0.2 0.2 0.2 0.2 0.9 1.8 0.4 0.6 1.6 0.9 1.0 0.3 0.1 0.1 0.1 0.1 0.7 0.7 1.2 1.8 5.0 5.9 5.6 5.8 5.0 5.1
1.7 3.8 5.9 0.0 0.0 0.2 0.8 0.1 0.0 0.1 0.1 0.2 0.2 0.2 1.1 1.5 3.1 2.3 1.7 0.4 0.2 0.5 0.6 0.1 0.0 0.0 1.4 2.8 1.9 0.5 0.3 0.4 1.1 0.5 0.3 0.3 1.0 1.0 1.8 2.9 5.2 7.0 6.2 5.8
0.4 2.4 0.1 0.0 0.1 0.0 0.0 0.1 0.1 0.1 0.1 0.1 0.3 1.7 1.7 3.9 4.3 5.4 2.9 0.4 0.2 0.1 0.1 0.1 0.0 0.0 0.1 0.1 0.1 0.2 0.3 2.1 1.5 0.4 0.7 0.3 0.4 1.1 1.6 1.7 2.6 2.6 4.3 7.2
0.2 0.0 0.0 0.0 0.0 0.0 0.0 0.0 0.1 0.0 0.0 0.3 2.5 4.0 7.2 8.2 6.9 4.9 2.3 0.1 0.0 0.0 0.0 0.1 0.0 0.0 0.1 0.6 0.1 0.0 0.0 0.0 0.1 0.1 0.1 0.2 0.5 0.8 0.9 1.8 2.2 2.8 4.5 5.8
0.2 0.1 0.0 0.0 0.0 0.0 0.0 0.0 0.0 0.0 0.0 0.1 0.3 1.2 0.3 0.6 1.4 2.1 2.0 0.4 0.0 0.0 0.0 0.0 0.0 0.0 0.3 0.3 0.0 0.0 0.0 0.0 0.0 0.1 0.1 0.3 0.7 1.3 1.0 2.2 1.7 2.9 4.8 4.4
0.8 0.0 0.0 0.1 0.0 0.0 0.0 0.1 0.0 0.0 0.0 0.0 0.0 0.2 0.3 0.8 0.5 0.3 0.7 0.4 0.2 0.2 0.1 0.1 0.1 0.3 0.6 0.2 0.0 0.0 0.0 0.1 0.3 0.3 0.3 0.3 0.4 1.2 nan nan nan nan nan 4.5
0.7 0.0 0.0 0.0 0.0 0.0 0.0 0.0 0.0 0.0 0.0 0.0 0.0 0.0 0.0 0.3 0.2 nan 0.1 0.3 2.3 2.7 1.6 1.4 1.4 1.8 0.6 0.3 0.0 0.0 0.0 0.0 0.5 0.3 0.5 0.7 0.7 0.9 1.9 3.9 nan nan nan nan
0.0 0.0 0.1 0.0 0.4 0.0 0.0 0.0 0.0 0.0 0.0 0.0 0.0 0.0 0.0 0.0 0.0 0.0 0.2 0.2 0.2 0.7 2.2 3.5 4.4 5.7 4.6 2.6 2.1 3.7 2.0 0.4 1.7 1.6 1.8 3.6 5.0 5.4 6.5 7.8 9.7 10.3 nan nan
0.0 0.0 0.0 0.0 0.0 0.0 0.0 0.0 0.0 0.0 0.0 0.0 0.0 0.0 0.0 0.1 0.2 0.3 0.4 0.1 0.2 0.4 1.6 2.9 4.1 7.0 6.0 5.7 6.0 6.0 5.0 6.4 6.7 6.8 7.3 6.0 4.2 4.0 4.0 4.3 5.9 7.1 5.9 4.0
0.0 0.0 0.0 0.0 0.0 0.0 0.1 0.0 0.0 0.0 0.0 0.0 0.0 0.0 0.0 0.1 0.3 0.3 0.4 0.4 0.6 1.2 1.0 5.1 2.6 5.2 4.3 4.4 4.8 3.5 3.4 2.4 1.8 2.4 2.6 2.5 2.5 2.5 2.2 2.8 3.4 4.8 5.1 5.7
0.1 0.6 0.1 0.1 0.0 0.0 0.0 0.0 0.0 0.0 0.0 0.0 0.1 0.0 0.0 0.1 0.2 0.8 2.5 3.8 5.3 6.6 7.4 6.7 8.7 7.1 5.9 4.6 0.9 1.4 1.9 1.9 1.2 1.6 1.6 1.7 2.1 2.4 1.7 2.3 2.9 2.8 5.9 8.6
0.0 0.0 0.0 0.0 0.0 0.0 0.0 0.0 0.0 0.0 0.1 0.1 1.2 3.6 5.8 5.5 4.2 6.1 7.1 7.0 8.9 10.4 9.6 9.9 8.3 7.1 6.4 4.7 1.8 1.0 1.1 1.0 1.0 1.4 1.1 2.2 1.4 1.0 1.8 1.9 1.8 2.5 3.5 12.0
0.0 0.0 0.0 0.0 0.0 0.0 0.1 0.1 0.3 0.7 3.0 3.8 5.8 7.1 7.8 9.2 7.9 9.6 10.5 13.3 13.6 7.3 10.4 6.4 1.8 2.2 1.2 1.3 0.4 0.7 1.0 2.4 1.3 1.0 1.3 5.0 4.1 1.7 3.8 4.9 4.1 6.1 3.7 4.0
0.1 0.0 0.0 0.1 0.0 0.4 0.6 2.3 2.3 3.8 5.3 5.2 10.8 13.3 12.0 14.9 14.4 13.7 9.3 8.3 6.7 5.8 4.5 2.9 1.1 0.7 0.6 0.4 1.5 0.6 1.8 2.9 1.8 3.3 5.2 2.3 7.6 12.2 7.6 6.7 4.7 7.4 14.2 10.9
0.4 1.0 2.3 3.4 6.4 6.3 7.8 9.1 8.1 8.6 10.0 12.0 12.2 14.8 13.7 11.2 10.5 11.6 6.8 2.4 4.2 2.7 1.4 1.0 1.4 1.4 0.7 0.4 0.4 5.3 4.7 7.3 7.8 5.0 8.3 11.4 14.5 10.5 11.8 13.6 12.5 14.9 17.8 15.0
4.7 5.4 7.8 6.8 6.9 7.6 9.5 8.5 6.5 9.4 9.6 12.4 16.2 17.2 12.3 6.8 8.0 6.7 7.5 2.3 2.8 2.4 1.6 1.8 1.4 3.5 2.6 4.9 1.3 6.5 5.1 4.1 6.1 6.2 7.0 10.7 11.1 17.0 18.4 17.2 16.8 19.5 19.6 20.1
5.1 4.7 5.9 7.7 6.8 6.4 6.5 7.0 10.3 8.2 12.0 10.9 11.2 7.8 4.6 2.3 1.7 2.6 3.5 1.0 1.1 3.6 0.9 2.6 4.4 5.3 5.7 9.2 9.1 10.4 10.6 10.6 10.3 9.1 9.6 15.9 15.8 25.0 14.6 14.6 16.9 17.2 22.7 16.5
3.2 2.7 3.6 4.0 3.1 1.5 1.9 2.2 1.3 2.3 8.3 4.0 5.4 7.8 1.7 4.3 6.5 1.0 1.0 5.7 5.7 13.9 8.4 8.2 7.9 6.1 6.7 11.5 12.1 14.0 13.2 14.2 15.2 17.5 8.8 9.0 22.6 20.0 16.5 23.3 16.1 18.0 20.5 18.4
1.8 1.9 2.2 1.4 0.5 1.5 0.6 0.5 0.9 1.5 1.2 1.3 0.9 0.8 0.6 0.8 5.9 2.6 5.0 4.9 6.3 4.4 7.2 7.6 6.2 7.1 15.8 16.5 16.1 17.2 18.0 16.1 19.1 20.9 15.5 21.4 19.9 27.1 25.2 20.6 23.9 24.3 24.9 22.3
0.2 0.8 0.8 0.3 0.6 1.0 0.9 0.8 1.7 1.8 1.7 6.3 3.8 10.5 7.2 3.1 2.4 2.9 4.9 6.1 3.8 5.7 5.4 15.6 19.1 18.7 18.0 12.5 16.5 17.5 13.7 11.3 14.8 15.5 17.2 17.1 16.6 14.2 17.8 16.2 21.5 25.7 31.5 33.8
0.9 0.3 0.9 0.9 0.9 0.9 1.2 1.1 2.8 4.8 6.0 8.3 8.3 8.4 4.6 7.5 10.0 6.3 7.4 10.0 11.0 12.0 15.4 18.4 16.1 11.4 10.3 15.7 14.3 12.8 12.0 13.1 11.0 9.7 20.1 23.0 22.0 28.6 26.0 25.6 28.9 30.3 28.0 25.0
Water_Equivalent
0.23 0.12 0.08 0.10 0.04 0.01 0.02 0.02 0.26 0.02 0.00 0.00 0.00 0.00 0.00 0.00 0.00 0.00 0.00 0.00 0.00 0.00 0.00 0.00 0.00 0.00 0.00 0.00 0.00 0.00 0.00 0.01 0.01 0.00 0.00 0.00 0.00 0.00 0.00 0.00 0.00 0.00 0.00 0.00
0.32 0.26 0.14 0.15 0.01 0.01 0.03 0.01 0.05 0.10 0.04 0.00 0.00 0.00 0.00 0.00 0.00 0.00 0.00 0.00 0.00 0.00 0.00 0.00 0.00 0.00 0.00 0.00 0.00 0.00 0.00 0.00 0.00 0.00 0.00 0.00 0.00 0.00 0.00 0.00 0.00 0.00 0.00 0.00
0.15 0.21 0.26 0.25 0.02 0.01 0.01 0.04 0.09 0.31 0.08 0.00 0.00 0.00 0.00 0.00 0.00 0.00 0.00 0.00 0.00 0.00 0.00 0.00 0.00 0.00 0.00 0.00 0.00 0.01 0.03 0.01 0.01 0.02 0.02 0.02 0.01 0.01 0.01 0.02 0.01 0.03 0.02 0.02
0.44 0.11 1.06 0.05 0.00 0.00 0.00 0.00 0.00 0.00 0.00 0.00 0.00 0.00 0.00 0.00 0.00 0.00 0.00 0.00 0.00 0.00 0.01 0.01 0.01 0.01 0.00 0.04 0.14 0.16 0.02 0.02 0.01 0.02 0.05 0.05 0.08 0.17 0.24 0.23 0.62 0.48 0.28 0.25
1.00 0.36 0.03 0.01 0.00 0.07 0.05 0.04 0.00 0.00 0.00 0.00 0.00 0.00 0.02 0.00 0.00 0.01 0.02 0.01 0.07 0.01 0.02 0.02 0.03 0.02 0.05 0.12 0.09 0.04 0.05 0.04 0.07 0.06 0.15 0.19 0.62 0.58 0.63 0.31 0.40 0.94 0.81 0.52
0.41 0.38 0.49 0.09 0.00 0.00 0.00 0.22 0.00 0.00 0.00 0.00 0.00 0.17 0.13 0.01 0.01 0.04 0.05 0.03 0.03 0.13 0.14 0.05 0.08 0.03 0.03 0.08 0.04 0.17 0.07 0.06 0.04 0.06 0.40 0.85 0.91 1.21 1.14 0.90 0.96 0.69 0.72 0.81
0.35 0.39 0.22 0.00 0.00 0.00 0.27 0.07 0.00 0.01 0.02 0.01 0.19 0.11 0.03 0.06 0.19 0.28 0.05 0.06 0.05 0.05 0.22 0.52 0.12 0.22 0.43 0.23 0.23 0.06 0.03 0.05 0.05 0.04 0.24 0.22 0.32 0.49 1.34 1.53 1.49 1.23 1.03 1.04
0.30 0.57 0.75 0.00 0.00 0.03 0.15 0.02 0.01 0.02 0.02 0.03 0.04 0.06 0.29 0.39 0.74 0.60 0.40 0.08 0.05 0.12 0.13 0.03 0.00 0.00 0.44 0.85 0.46 0.12 0.08 0.09 0.33 0.15 0.10 0.10 0.31 0.28 0.42 0.69 1.21 1.69 1.36 1.39
0.07 0.44 0.02 0.00 0.02 0.01 0.01 0.01 0.02 0.02 0.03 0.02 0.06 0.39 0.41 0.65 0.77 1.03 0.59 0.09 0.03 0.03 0.02 0.02 0.01 0.00 0.01 0.02 0.03 0.05 0.07 0.48 0.36 0.10 0.18 0.07 0.09 0.27 0.44 0.47 0.61 0.47 0.78 1.16
0.04 0.01 0.00 0.01 0.00 0.00 0.00 0.01 0.02 0.01 0.01 0.09 0.65 1.06 1.39 1.36 0.98 0.71 0.42 0.03 0.00 0.00 0.00 0.01 0.01 0.00 0.01 0.08 0.01 0.00 0.00 0.01 0.01 0.02 0.03 0.03 0.11 0.17 0.18 0.35 0.44 0.56 0.84 0.90
0.07 0.02 0.00 0.00 0.00 0.00 0.01 0.01 0.01 0.01 0.01 0.03 0.07 0.26 0.06 0.11 0.24 0.32 0.34 0.09 0.00 0.00 0.00 0.01 0.01 0.01 0.04 0.04 0.00 0.00 0.00 0.00 0.00 0.03 0.02 0.05 0.12 0.23 0.20 0.34 0.32 0.52 0.74 0.71
0.20 0.00 0.00 0.01 0.00 0.00 0.01 0.01 0.01 0.00 0.01 0.01 0.01 0.05 0.05 0.14 0.08 0.05 0.11 0.07 0.04 0.03 0.02 0.02 0.02 0.05 0.07 0.03 0.00 0.00 0.00 0.04 0.10 0.08 0.09 0.07 0.08 0.20 nan nan nan nan nan 0.91
0.24 0.00 0.00 0.01 0.00 0.00 0.00 0.00 0.00 0.00 0.00 0.00 0.00 0.00 0.01 0.05 0.03 nan 0.03 0.07 0.39 0.43 0.25 0.24 0.28 0.35 0.10 0.05 0.00 0.01 0.01 0.00 0.14 0.10 0.15 0.18 0.18 0.21 0.36 0.68 nan nan nan nan
0.00 0.00 0.01 0.01 0.09 0.00 0.00 0.00 0.00 0.00 0.00 0.00 0.00 0.00 0.00 0.00 0.00 0.01 0.03 0.04 0.03 0.12 0.31 0.57 0.69 0.85 0.95 0.75 0.58 0.90 0.54 0.12 0.48 0.42 0.49 0.90 1.21 1.18 1.38 1.52 1.65 1.69 nan nan
0.00 0.00 0.00 0.00 0.00 0.00 0.00 0.00 0.00 0.00 0.00 0.00 0.00 0.00 0.00 0.01 0.03 0.04 0.05 0.01 0.02 0.06 0.23 0.41 0.59 0.99 1.07 1.22 1.35 1.54 1.41 1.65 1.66 1.61 1.73 1.46 1.01 0.90 0.89 0.92 1.17 1.24 1.10 0.89
0.00 0.00 0.00 0.00 0.00 0.00 0.01 0.00 0.00 0.00 0.00 0.00 0.00 0.00 0.00 0.01 0.04 0.05 0.06 0.06 0.09 0.16 0.12 0.78 0.32 0.64 0.62 0.66 0.81 0.67 0.69 0.70 0.45 0.54 0.58 0.56 0.55 0.51 0.45 0.55 0.64 0.74 0.66 0.68
0.02 0.10 0.02 0.02 0.00 0.00 0.00 0.00 0.00 0.00 0.01 0.00 0.01 0.00 0.00 0.02 0.03 0.10 0.30 0.44 0.65 0.82 0.94 0.86 1.06 0.91 0.76 0.60 0.17 0.30 0.39 0.40 0.39 0.37 0.36 0.37 0.44 0.50 0.35 0.43 0.50 0.46 0.80 1.33
0.00 0.00 0.00 0.00 0.00 0.00 0.00 0.00 0.00 0.00 0.02 0.02 0.21 0.58 0.84 0.76 0.44 0.62 0.74 0.78 1.08 1.25 1.11 1.16 0.97 0.84 0.76 0.57 0.27 0.20 0.25 0.23 0.23 0.32 0.26 0.47 0.31 0.23 0.39 0.39 0.37 0.46 0.59 2.26
0.00 0.00 0.00 0.00 0.00 0.01 0.01 0.02 0.05 0.11 0.51 0.54 0.87 0.91 1.00 1.22 0.94 1.09 1.19 1.71 1.75 0.74 1.05 0.69 0.60 0.36 0.16 0.18 0.08 0.16 0.23 0.60 0.31 0.21 0.28 1.60 0.82 0.34 0.66 0.88 0.73 1.04 0.63 0.60
0.02 0.01 0.01 0.02 0.01 0.09 0.09 0.38 0.38 0.49 0.62 0.63 1.52 1.85 1.44 1.87 1.85 1.81 1.12 0.88 0.67 0.75 0.46 0.33 0.15 0.09 0.08 0.09 0.46 0.13 0.42 0.69 0.42 0.67 0.95 0.43 1.29 2.01 1.25 2.14 0.84 1.25 2.46 1.82
0.08 0.18 0.37 0.56 1.02 1.07 1.33 1.50 1.15 1.15 1.24 1.64 1.70 2.02 1.81 1.36 1.38 1.65 0.85 0.35 0.42 0.29 0.19 0.30 0.19 0.21 0.11 0.07 0.12 1.06 0.93 1.46 1.49 0.92 1.53 2.07 2.74 1.94 2.07 2.45 2.21 2.68 3.12 2.49
0.78 0.86 1.25 1.04 1.04 1.02 1.40 1.23 0.90 1.16 1.17 1.65 2.28 2.47 1.76 0.74 1.01 0.85 1.08 0.34 0.36 0.80 0.30 0.31 0.22 1.09 0.74 1.59 0.27 1.36 1.01 0.82 1.17 1.17 1.28 2.01 2.05 3.11 3.20 2.86 2.75 3.30 3.38 3.49
0.77 0.69 0.81 1.00 0.89 0.80 0.79 0.87 1.31 1.09 1.63 1.49 1.62 1.06 0.67 0.39 0.31 0.48 0.57 0.11 0.19 1.08 0.19 0.56 1.42 1.74 1.87 1.92 1.87 2.14 2.04 1.96 1.89 1.63 1.74 2.89 2.73 4.19 2.19 2.18 2.60 2.67 3.73 2.51
0.46 0.38 0.48 0.57 0.43 0.18 0.21 0.27 0.16 0.28 1.14 0.51 0.80 1.24 0.27 0.82 1.36 0.20 0.22 1.87 1.88 3.73 1.93 1.93 2.10 2.02 2.20 2.39 2.39 2.65 2.42 2.61 2.69 2.94 1.43 2.80 3.83 2.94 2.31 3.34 2.00 2.67 2.92 2.57
0.26 0.26 0.31 0.20 0.08 0.26 0.08 0.07 0.11 0.18 0.14 0.16 0.11 0.10 0.08 0.17 1.11 0.53 1.02 1.03 1.99 1.14 1.51 2.26 2.04 2.36 3.05 3.09 2.83 2.80 2.86 2.43 2.80 3.17 2.22 3.29 3.02 4.28 3.68 2.70 3.10 3.30 3.28 2.96
0.03 0.16 0.16 0.04 0.12 0.18 0.17 0.16 0.32 0.31 0.30 0.94 0.60 1.93 1.44 0.66 0.55 0.58 0.96 1.66 0.75 1.79 0.99 2.82 3.53 3.49 3.28 2.03 2.64 2.71 1.99 1.56 2.09 2.02 2.29 2.25 2.22 1.79 2.22 2.01 2.80 3.59 4.53 5.01
0.17 0.06 0.19 0.18 0.17 0.18 0.22 0.20 0.51 0.77 1.25 1.42 1.28 1.40 0.81 1.32 1.78 1.43 2.13 1.84 2.01 2.01 2.58 3.20 2.76 2.78 1.64 2.64 2.22 1.87 1.73 1.84 2.83 1.21 2.58 3.02 2.82 3.94 3.47 3.52 4.07 4.54 3.83 3.20
SL_Ratio
5.6 5.7 5.8 6.2 6.3 6.2 6.7 6.0 5.7 5.3 10.0 nan nan nan nan nan nan nan nan nan nan nan nan nan nan nan nan nan nan nan nan 3.3 3.9 nan nan nan nan nan nan nan nan nan nan nan
7.0 5.7 5.7 6.0 5.3 5.5 5.4 5.7 5.8 6.2 6.2 nan nan nan nan nan nan nan nan nan nan nan nan nan nan nan nan nan nan nan 3.3 nan nan nan nan nan nan nan nan nan nan nan nan 5.0
8.0 6.1 6.4 7.3 5.4 5.0 5.2 5.7 5.8 7.1 6.1 nan nan nan nan nan nan nan nan nan nan nan nan nan 5.0 nan 3.3 10.0 2.9 5.6 6.4 3.9 3.3 4.0 4.2 4.3 4.1 3.8 4.0 4.8 5.0 4.9 4.7 4.7
5.8 6.4 9.4 5.9 nan nan 2.5 nan nan nan nan nan nan nan nan nan nan nan nan nan nan 4.0 3.5 3.5 3.5 3.4 2.5 3.9 3.4 4.8 5.8 4.1 3.8 4.1 4.0 4.1 3.9 4.1 4.2 4.1 4.5 4.9 5.5 5.2
6.5 6.2 6.3 4.8 nan 4.0 3.8 4.8 nan nan nan nan nan nan 4.1 nan 3.3 3.6 3.5 3.6 2.7 3.5 3.6 3.6 3.6 3.5 3.0 4.0 5.9 6.2 5.5 4.5 4.4 4.4 4.5 4.5 4.8 4.9 4.6 4.3 4.4 5.0 4.6 5.2
6.3 7.9 6.2 3.6 nan nan 5.0 5.0 nan nan nan 5.0 4.4 4.8 4.2 3.8 3.5 3.4 3.4 3.5 3.7 2.9 3.1 3.7 3.3 3.5 3.8 4.8 5.3 4.1 4.6 4.3 4.2 3.7 4.8 5.2 4.6 4.6 4.2 4.3 4.9 4.3 5.0 5.1
6.2 6.2 4.3 3.3 nan nan 5.5 5.4 3.6 3.8 3.9 3.5 4.9 4.2 3.6 3.2 3.7 3.4 3.5 3.8 3.7 4.0 4.0 3.5 3.1 2.9 3.9 4.0 4.4 4.0 3.4 2.9 2.8 2.9 2.9 3.4 3.7 3.7 3.7 3.8 3.8 4.7 4.8 4.9
5.8 6.7 7.8 nan nan 5.2 5.0 3.5 3.7 3.9 4.0 4.3 4.4 4.2 3.8 3.9 4.2 3.9 4.3 4.3 4.1 4.5 4.8 4.3 3.6 3.3 3.2 3.4 4.2 3.9 3.7 4.0 3.4 3.2 3.3 3.2 3.1 3.6 4.2 4.2 4.3 4.1 4.6 4.2
5.4 5.4 3.6 2.5 3.8 3.2 3.2 3.7 3.8 4.1 4.1 4.0 4.2 4.2 4.1 6.0 5.6 5.2 4.9 4.6 4.5 4.9 5.4 5.2 4.7 nan 5.8 4.9 5.1 3.8 3.9 4.3 4.2 4.0 3.9 4.2 4.4 4.3 3.7 3.6 4.3 5.5 5.5 6.2
4.4 4.1 3.6 3.1 0.0 nan 3.6 3.8 3.8 3.9 4.1 3.2 3.9 3.8 5.2 6.0 7.0 6.9 5.4 4.2 3.3 7.5 6.4 7.0 5.5 0.0 7.3 7.5 7.6 10.0 6.7 4.7 4.8 4.9 5.2 6.1 4.5 4.6 5.0 5.2 5.1 5.0 5.4 6.5
3.6 3.8 3.3 3.3 2.7 nan 3.4 3.5 3.5 3.8 3.8 3.7 3.7 4.5 4.9 5.6 5.8 6.6 6.1 4.6 3.3 4.2 5.0 5.0 5.7 6.8 7.3 7.5 7.3 6.7 nan 0.0 5.0 4.3 5.3 5.6 5.4 5.4 4.8 6.4 5.5 5.6 6.6 6.2
4.0 nan 2.9 3.7 3.6 0.0 3.6 3.7 3.5 nan 3.8 3.5 3.6 4.4 4.7 5.9 5.5 5.4 5.8 5.4 5.2 5.2 5.1 5.9 7.1 7.5 7.6 7.4 10.0 nan nan 3.3 3.5 3.4 3.7 4.2 4.4 5.8 nan nan nan nan nan 4.9
2.9 2.5 0.0 3.0 3.3 nan 0.0 2.9 nan 2.9 nan 3.3 4.0 nan 3.9 5.5 5.1 nan 5.0 5.2 5.9 6.4 6.2 5.7 5.1 5.1 6.0 6.6 6.7 3.2 3.9 4.0 3.5 3.4 3.7 3.9 3.9 4.2 5.2 5.8 nan nan nan nan
nan 5.0 4.0 3.1 4.2 nan nan nan nan nan nan nan nan nan nan 6.0 6.0 5.7 5.5 5.7 5.2 5.7 7.2 6.1 6.4 6.7 4.9 3.5 3.6 4.1 3.7 3.0 3.5 3.7 3.8 4.0 4.1 4.6 4.7 5.1 5.8 6.1 nan nan
nan nan nan nan nan nan nan 0.0 nan 7.5 6.7 10.0 nan 7.5 6.7 7.3 7.1 6.7 6.9 6.3 6.1 6.2 6.7 7.1 7.0 7.1 5.6 4.7 4.4 3.9 3.5 3.9 4.1 4.2 4.2 4.1 4.1 4.4 4.5 4.7 5.1 5.7 5.3 4.4
nan nan nan nan 10.0 6.0 6.3 6.7 10.0 5.0 nan 10.0 nan nan 6.3 6.4 7.2 6.9 7.5 7.5 6.8 7.5 8.1 6.5 8.1 8.1 7.0 6.7 6.0 5.2 4.9 3.5 3.9 4.4 4.5 4.5 4.6 4.8 5.0 5.1 5.4 6.5 7.7 8.4
3.8 5.7 5.4 4.5 5.5 6.3 10.0 nan nan nan 6.5 5.0 4.7 6.0 6.9 7.1 7.3 8.0 8.5 8.7 8.1 8.0 7.9 7.8 8.2 7.9 7.8 7.7 5.3 4.5 4.8 4.6 3.0 4.4 4.6 4.6 4.7 4.9 5.0 5.3 5.7 6.2 7.3 6.4
nan nan 0.0 nan nan nan 3.3 5.0 3.8 4.0 5.6 4.8 6.0 6.2 7.0 7.2 9.8 9.9 9.6 9.0 8.2 8.3 8.7 8.6 8.5 8.4 8.4 8.3 6.7 4.8 4.6 4.4 4.3 4.3 4.3 4.7 4.7 4.3 4.7 4.9 4.9 5.4 6.0 5.3
nan nan 4.4 nan 10.0 4.2 4.4 4.9 5.7 5.9 5.9 7.1 6.8 7.8 7.8 7.5 8.3 8.8 8.8 7.8 7.8 9.8 9.9 9.3 3.0 6.0 7.4 7.3 4.7 4.6 4.4 4.1 4.2 4.6 4.8 3.1 5.0 5.0 5.7 5.6 5.7 5.8 5.9 6.7
4.2 4.1 3.9 4.2 4.2 5.0 6.3 6.1 6.0 7.8 8.5 8.2 7.1 7.2 8.3 8.0 7.8 7.6 8.3 9.4 9.9 7.8 9.6 9.0 7.6 7.8 7.4 4.4 3.2 4.7 4.3 4.1 4.3 4.9 5.5 5.3 5.9 6.1 6.0 3.1 5.6 5.9 5.8 6.0
5.2 5.5 6.2 6.0 6.3 5.9 5.9 6.1 7.0 7.5 8.1 7.3 7.2 7.3 7.6 8.2 7.6 7.0 8.0 6.9 9.9 9.2 7.3 3.4 7.2 6.7 6.4 5.1 3.7 5.0 5.1 5.0 5.2 5.4 5.5 5.5 5.3 5.4 5.7 5.6 5.6 5.5 5.7 6.0
6.1 6.3 6.2 6.6 6.6 7.5 6.8 6.9 7.2 8.1 8.2 7.5 7.1 7.0 7.0 9.1 7.9 7.9 7.0 6.8 7.7 3.0 5.5 5.6 6.4 3.2 3.5 3.1 4.8 4.8 5.1 5.0 5.2 5.3 5.5 5.3 5.4 5.5 5.8 6.0 6.1 5.9 5.8 5.8
6.6 6.8 7.3 7.7 7.7 8.1 8.2 8.0 7.9 7.5 7.4 7.4 6.9 7.4 6.8 6.1 5.5 5.4 6.2 8.8 5.7 3.3 4.6 4.7 3.1 3.0 3.0 4.8 4.9 4.8 5.2 5.4 5.5 5.6 5.5 5.5 5.8 6.0 6.7 6.7 6.5 6.5 6.1 6.6
6.9 7.1 7.5 7.1 7.2 8.0 9.0 8.3 7.9 8.2 7.2 7.9 6.8 6.3 6.2 5.3 4.8 5.0 4.4 3.0 3.0 3.7 4.3 4.2 3.8 3.0 3.0 4.8 5.1 5.3 5.5 5.4 5.6 6.0 6.1 3.2 5.9 6.8 7.1 7.0 8.1 6.7 7.0 7.2
7.0 7.1 7.2 6.9 6.7 5.8 7.2 7.3 7.6 8.4 8.4 7.7 8.6 7.9 6.9 4.4 5.3 4.9 4.9 4.7 3.1 3.8 4.7 3.4 3.0 3.0 5.2 5.3 5.7 6.2 6.3 6.6 6.8 6.6 7.0 6.5 6.6 6.3 6.8 7.6 7.7 7.4 7.6 7.5
5.9 5.1 5.3 6.1 5.2 5.4 5.1 5.4 5.2 5.9 5.8 6.7 6.4 5.4 5.0 4.7 4.4 4.9 5.1 3.6 5.0 3.2 5.4 5.5 5.4 5.4 5.5 6.2 6.2 6.5 6.9 7.3 7.1 7.7 7.5 7.6 7.5 7.9 8.0 8.0 7.7 7.2 6.9 6.7
5.0 4.7 5.0 5.2 5.2 5.3 5.4 5.4 5.4 6.2 4.8 5.9 6.5 6.0 5.7 5.7 5.6 4.4 3.4 5.4 5.5 6.0 6.0 5.7 5.8 4.1 6.3 6.0 6.5 6.8 6.9 7.1 3.9 8.0 7.8 7.6 7.8 7.2 7.5 7.3 7.1 6.7 7.3 7.8